Terug naar catalogus

COSMOS 2251 DEB

ActiefLEO
NORAD 33906·DEBRIS·🇷🇺 Russia

Gelanceerd Jun 16, 1993 vanaf Plesetsk Cosmodrome

Loading…

Volgende Passages (komende 24 uur)

TLE

VersSource: Space-Track

Epoch: Sep 14, 2026, 11:51 UTC

1 33906U 93036DK  26257.49386847  .00004259  00000-0  87138-3 0  9993
2 33906  74.0285 155.6599 0034065 126.8966  47.6161 14.60755477920300

Volg COSMOS 2251 DEB in realtime met AllMySat

Download on the App Store